Welcome to the New NWS' Forecast!
Most changes are behind the scenes, but click here for differences you might notice.
Latest weather observations around

Alabaster, Shelby County Airport (KEET)

Using International System of Units (Switch to English Units)
Date/ Time (CDT) Wind (kph) Vis. (km) Weather Sky Cond. Temp (°C) Rel. Humidity Wind Chill (°C) Heat Index (°C) Pressure Precip. (cm)
Air Dwpt 6 hour Altimeter (hPa) Sea level (hPa) 1 hr 3 hr 6 hr
Max Min
Aug 17 03:53 S 9 16.09 Cloudy OVC006 24 23     94%   25 1021 1020      
Aug 17 02:53 SSE 9 16.09 Cloudy OVC007 24 23     94%   25 1020.3 1019.5      
Aug 17 01:53 S 8 16.09 Cloudy OVC008 23 22     94%   24 1020.3 1019.4      
Aug 17 01:39 S 5 16.09 Mostly Cloudy BKN009 23 22     94%   24 1020.3        
Aug 17 01:15 S 5 16.09 Mostly Clear FEW008 23 22     94%   24 1020.3        
Aug 17 00:53 SSE 5 16.09 Clear CLR 23 22     94%   24 1020.7 1019.8      
Aug 16 23:53 SSE 9 16.09 Clear CLR 24 22     88%   25 1021 1020.2      
Aug 16 22:53 S 9 16.09 Clear CLR 24 22     88%   25 1021.3 1020.5      
Aug 16 21:53 S 11 16.09 Clear CLR 25 22     84%   26 1021.3 1020.5      
Aug 16 20:53 SSW 5 16.09 Clear CLR 26 23     82%   28 1020.7 1019.7      
Aug 16 19:53 S 11 16.09 Mostly Clear FEW024 27 23     79%   30 1020.3 1019.3      
Aug 16 18:53 S 11 16.09 Mostly Clear FEW047 29 22     67%   32 1019.7 1018.7      
Aug 16 17:53 SE 13 16.09 Mostly Clear FEW045 32 22     54%   36 1018.6 1017.9      
Aug 16 16:53 8 16.09 Clear CLR 32 23     58%   37 1019 1018.1      
Aug 16 15:53 SSE 13 16.09 Partly Cloudy SCT048 33 22     52%   38 1019 1018.1      
Aug 16 14:53 SE 9 16.09 Clear CLR 32 21     52%   35 1019.3 1018.4      
Aug 16 13:53   16.09 Partly Cloudy FEW039 SCT048 32 23     59%   36 1020 1019.2      
Aug 16 12:53 S 8 16.09 Mostly Clear FEW035 31 23     61%   35 1020.3 1019.6      
Aug 16 11:53 8 16.09 Partly Cloudy SCT029 SCT037 31 23     65%   35 1021 1020.2      
Aug 16 11:42 Calm 16.09 Mostly Cloudy BKN028 BKN038 30 23     67%   34 1021.3        
Aug 16 11:29 5 16.09 Partly Cloudy SCT028 30 23     65%   34 1021.3        
Aug 16 10:53 WSW 11 16.09 Mostly Cloudy BKN024 BKN032 29 23     70%   32 1021.7 1020.8      
Aug 16 10:13 S 9 14.48 Mostly Clear FEW026 28 23     74%   31 1021.3        
Aug 16 09:53 WSW 9 16.09 Mostly Cloudy SCT015 BKN021 BKN027 27 23     79%   30 1021.3 1020.4      
Aug 16 09:43 SW 8 16.09 Mostly Cloudy BKN014 BKN021 28 24     82%   32 1021        
Aug 16 08:53 S 9 16.09 Mostly Clear FEW008 26 24     88%   28 1021.3 1020.4      
Aug 16 08:38 Calm 14.48 Partly Cloudy SCT008 26 24     90%   27 1021.3        
Aug 16 08:26 Calm 12.87 Mostly Cloudy BKN006 26 23     87%   26 1021.7        
Aug 16 08:01 S 8 12.87 Mostly Cloudy BKN004 24 23     94%   25 1021.3        
Aug 16 07:53 S 8 11.27 Cloudy OVC005 24 23     94%   25 1021.3 1020.5      
Aug 16 07:06 Calm 9.66 Fog/Mist OVC006 23 22     94%   24 1021        
Aug 16 06:53 Calm 9.66 Fog/Mist OVC007 23 22     94%   24 1020.7 1019.9      
Aug 16 06:35 Calm 9.66 Fog/Mist BKN007 23 22     94%   24 1020.3        
Aug 16 06:25 Calm 9.66 Fog/Mist SCT007 23 22     94%   24 1020.3        
Aug 16 05:53 Calm 12.87 Clear CLR 23 22     94%   24 1019.7 1018.9      
Aug 16 04:53 Calm 12.87 Clear CLR 23 22     94%   24 1019.3 1018.6      
Aug 16 03:53 Calm 14.48 Clear CLR 23 22     91%   24 1019 1018      
Aug 16 02:53 Calm 16.09 Clear CLR 23 22     91%   24 1019 1018      
Aug 16 01:53 SSE 5 16.09 Clear CLR 24 22     88%   25 1018.6 1017.9      
Aug 16 00:53 S 5 16.09 Clear CLR 24 22     88%   25 1019 1018.1      
Aug 15 23:53 S 5 16.09 Clear CLR 25 22     84%   26 1018.6 1018      
Aug 15 22:53 Calm 14.48 Clear CLR 24 23     91%   25 1018.3 1017.5      
Aug 15 21:53 Calm 14.48 Clear CLR 26 23     85%   26 1018.3 1017.5      
Aug 15 20:53 Calm 16.09 Clear CLR 26 23     87%   26 1018.3 1017.4      
Aug 15 19:53 Calm 16.09 Clear CLR 27 23     82%   29 1018 1017.1      
Aug 15 18:53 S 5 16.09 Clear CLR 30 22     63%   33 1017.6 1016.7      
Aug 15 17:53 S 8 16.09 Clear CLR 31 21     55%   34 1017.3 1016.6      
Aug 15 16:53 S 11 16.09 Clear CLR 33 21     50%   36 1017.6 1016.7      
Aug 15 15:53 5 16.09 Mostly Cloudy BKN050 BKN060 33 21     50%   36 1017.6 1016.8      
Aug 15 14:53 SE 9 16.09 Mostly Cloudy BKN048 BKN065 32 21     50%   35 1018 1017      
Aug 15 13:53 8 16.09 Mostly Cloudy BKN044 32 22     54%   36 1018.3 1017.6      
Aug 15 12:53 Calm 16.09 Clear CLR 32 20     50%   34 1019 1018.1      
Aug 15 11:53 SE 8 16.09 Clear CLR 31 22     61%   34 1019.3 1018.4      
Aug 15 10:53 Calm 16.09 Clear CLR 29 22     67%   32 1019.7 1018.7      
Aug 15 09:53 SE 5 16.09 Clear CLR 28 22     72%   30 1019.7 1018.7      
Aug 15 08:53 Calm 16.09 Clear CLR 26 22     79%   26 1019.3 1018.7      
Aug 15 07:53 Calm 12.87 Clear CLR 24 22     90%   25 1019 1018.2      
Aug 15 06:53 Calm 8.05 Fog/Mist FEW003 23 22     96%   24 1018.3 1017.6      
Aug 15 06:24 Calm 9.66 Fog/Mist SCT002 22 22     97%   23 1018.3        
Aug 15 05:53 Calm 12.87 Clear CLR 22 21     96%   22 1017.6 1017      
Aug 15 04:53 Calm 9.66 Fog/Mist CLR 22 22     97%   23 1017.6 1016.8      
Aug 15 03:53 Calm 9.66 Fog/Mist CLR 23 22     96%   24 1017.6 1016.7      
Aug 15 02:53 Calm 11.27 Clear CLR 23 22     94%   24 1017.6 1016.9      
Aug 15 01:53 Calm 11.27 Clear CLR 23 22     94%   24 1017.6 1016.8      
Aug 15 00:53 Calm 16.09 Clear CLR 23 22     94%   24 1018.3 1017.3      
Aug 14 23:53 Calm 14.48 Clear CLR 24 23     94%   25 1018 1017.3      
Aug 14 22:53 Calm 14.48 Clear CLR 24 23     91%   25 1018 1017.1      
Aug 14 21:53 Calm 16.09 Clear CLR 26 23     85%   26 1017.6 1016.9      
Aug 14 20:53 Calm 16.09 Clear CLR 25 22     84%   26 1016.9 1016.3      
Aug 14 20:04 Calm 16.09 Mostly Clear FEW005 26 22     79%   26 1016.3        
Aug 14 19:53 Calm 16.09 Clear CLR 26 21     74%   28 1016.3 1015.5      
Aug 14 18:53 S 5 16.09 Clear CLR 27 21     69%   28 1016.3 1015.5      
Aug 14 18:08 SSE 9 16.09 Clear CLR 28 21     63%   30 1016.3        
Aug 14 17:53 SSE 11 16.09 Thunderstorms FEW060 FEW120 29 22     65%   32 1016.3 1015.5      
Aug 14 17:41 SE 15 16.09 Thunderstorms FEW046 FEW055 SCT120 28 22     69%   30 1016.3        
Aug 14 17:33 11 16.09 Partly Cloudy SCT047 SCT120 28 22     67%   31 1016.3        
Aug 14 17:04 5 16.09 Thunderstorms SCT055 BKN110 32 22     55%   35 1015.9        
Aug 14 16:53 SSW 11 16.09 Mostly Cloudy FEW060 BKN110 32 22     55%   35 1015.9 1015.1      
Aug 14 15:53 Calm 16.09 Clear CLR 32 21     53%   35 1015.9 1015.2      
Aug 14 14:53 5 14.48 Partly Cloudy SCT055 32 23     58%   37 1016.3 1015.4      
Aug 14 13:53 WNW 8 14.48 Clear CLR 32 21     53%   35 1016.9 1016      
Aug 14 12:53 5 14.48 Clear CLR 31 21     54%   34 1017.6 1016.7      
Aug 14 11:53 ESE 8 14.48 Mostly Clear FEW065 31 21     55%   33 1018 1017.1      
Aug 14 10:53 Calm 14.48 Partly Cloudy SCT080 30 20     55%   32 1018.3 1017.4      
Aug 14 09:53 SSE 5 14.48 Clear CLR 29 20     59%   31 1018 1017      
Aug 14 08:53 Calm 14.48 Clear CLR 28 21     63%   30 1017.6 1016.8      
Aug 14 07:53 Calm 11.27 Clear CLR 26 21     76%   26 1017.6 1016.8      
Aug 14 05:53 Calm 12.87 Clear CLR 22 21     91%   23 1016.9 1016.2      
Aug 14 04:53 Calm 9.66 Fog/Mist CLR 23 22     94%   24 1016.6 1015.7      
May 15 03:53 Calm 14.48 Clear CLR 22 19     87%   22 1015.2 1014.4      
May 14 10:53 9 16.09 Clear CLR 32 18     44%   32 1017.6 1016.8      
May 14 04:53 Calm 11.27 Clear   19 18     93%     1016.6 1015.8      
May 13 22:53 Calm 12.87 Clear CLR 23 20     84%   23 1018 1017.1      
May 13 08:53 Calm 14.48 Clear CLR 27 17     54%   27 1021.3 1020.6      
May 12 02:53 Calm 12.87 Clear CLR 18 17     90%     1019 1018.4      
May 11 16:53 WSW 8 16.09 Clear CLR 31 13     35%   30 1018 1017.1      
Jun 12 05:53 Calm 16.09 Mostly Clear FEW023 22 22     97%   23 1020.7 1020      
Jun 11 18:53 SSE 8 16.09 Clear CLR 30 21     57%   32 1018.6 1017.7      
Jun 11 11:53 SE 9 16.09 Clear CLR 29 19     53%   31 1021 1020.3      
Jun 11 10:53 ESE 11 16.09 Mostly Clear FEW031 28 22     67%   31 1021.3 1020.5      
Jun 11 01:53 Calm 16.09 Clear   22 18     81%   22 1018.6 1017.9      
Jun 10 03:53 Calm 16.09 Mostly Cloudy BKN060 BKN075 19 18     96%     1016.3 1015.4      
Jun 09 21:53 Calm 16.09 Clear CLR 21 19     87%     1015.2 1014.7      
Jun 08 19:53 Calm 16.09 Clear CLR 22 18     76%   22 1011.5 1010.9      
Jun 07 07:53 N 9 16.09 Clear CLR 21 16     71%     1009.8 1009.2      
Jun 06 08:20 NNW 8 4.83 Light Rain and Fog/Mist SCT006 OVC017 22 22     100%   23 1009.5   1    
Jun 06 07:28 Calm 8.05 Light Rain and Fog/Mist BKN013 BKN017 OVC043 22 22     100%   23 1009.5   0    
Jun 06 06:10 NW 9 2.82 Rain and Fog/Mist BKN013 BKN020 OVC024 21 21     100%     1009.5   1    
Jun 06 05:05 Calm 4.83 Rain and Fog/Mist FEW031 BKN042 OVC070 22 22     100%   23 1008.8   0    
Jun 05 21:53 Calm 16.09 Clear   22 22     100%   23 1010.2 1009.2   0